Time,TemperatureF,DewpointF,PressureIn,WindDirection,WindDirectionDegrees,WindSpeedMPH,WindSpeedGustMPH,Humidity,HourlyPrecipIn,Conditions,Clouds,dailyrainin,SoftwareType,DateUTC
2013-01-26 00:00:00,16.3,14.4,30.10,ESE,122,0.0,0.0,92,0.00,,---,0.00,VWS V14.01,2013-01-26 05:00:00,
2013-01-26 00:01:00,16.3,14.4,30.10,ESE,121,0.0,0.0,92,0.00,,---,0.00,VWS V14.01,2013-01-26 05:01:00,
2013-01-26 00:06:00,16.3,14.4,30.10,ESE,121,0.0,0.0,92,0.00,,---,0.00,VWS V14.01,2013-01-26 05:06:00,
2013-01-26 00:11:00,16.3,14.4,30.10,ESE,121,0.0,0.0,92,0.00,,---,0.00,VWS V14.01,2013-01-26 05:11:00,
2013-01-26 00:16:00,16.4,14.5,30.10,ESE,121,0.0,0.0,92,0.00,,---,0.00,VWS V14.01,2013-01-26 05:16:00,
2013-01-26 00:21:00,16.4,14.5,30.10,ESE,121,0.0,0.0,92,0.00,,---,0.00,VWS V14.01,2013-01-26 05:21:00,
2013-01-26 00:26:00,16.4,14.5,30.10,ESE,121,0.0,0.0,92,0.00,,---,0.00,VWS V14.01,2013-01-26 05:26:00,
2013-01-26 00:32:00,16.4,14.5,30.10,ESE,121,0.0,0.0,92,0.00,,---,0.00,VWS V14.01,2013-01-26 05:32:00,
2013-01-26 00:37:00,16.4,14.5,30.10,ESE,121,0.0,0.0,92,0.00,,---,0.00,VWS V14.01,2013-01-26 05:37:00,
2013-01-26 00:42:00,16.5,14.6,30.10,ESE,121,0.0,0.0,92,0.00,,---,0.00,VWS V14.01,2013-01-26 05:42:00,
2013-01-26 00:47:00,16.5,14.6,30.10,ESE,121,0.0,0.0,92,0.00,,---,0.00,VWS V14.01,2013-01-26 05:47:00,
2013-01-26 00:52:00,16.5,14.6,30.10,ESE,122,0.0,0.0,92,0.00,,---,0.00,VWS V14.01,2013-01-26 05:52:00,
2013-01-26 00:57:00,16.4,14.5,30.10,ESE,121,0.0,0.0,92,0.00,,---,0.00,VWS V14.01,2013-01-26 05:57:00,
2013-01-26 01:02:00,16.4,14.5,30.10,ESE,121,0.0,0.0,92,0.00,,---,0.00,VWS V14.01,2013-01-26 06:02:00,
2013-01-26 01:07:00,16.4,14.5,30.10,ESE,121,0.0,0.0,92,0.00,,---,0.00,VWS V14.01,2013-01-26 06:07:00,
2013-01-26 01:12:00,16.4,14.5,30.10,ESE,121,0.0,0.0,92,0.00,,---,0.00,VWS V14.01,2013-01-26 06:12:00,
2013-01-26 01:17:00,16.3,14.4,30.10,ESE,121,0.0,0.0,92,0.00,,---,0.00,VWS V14.01,2013-01-26 06:17:00,
2013-01-26 01:22:00,16.3,14.4,30.10,ESE,121,0.0,0.0,92,0.00,,---,0.00,VWS V14.01,2013-01-26 06:22:00,
2013-01-26 01:27:00,16.3,14.4,30.10,ESE,121,0.0,0.0,92,0.00,,---,0.00,VWS V14.01,2013-01-26 06:27:00,
2013-01-26 01:32:00,16.2,14.3,30.10,ESE,121,0.0,0.0,92,0.00,,---,0.00,VWS V14.01,2013-01-26 06:32:00,
2013-01-26 01:38:00,16.2,14.3,30.10,ESE,121,0.0,0.0,92,0.00,,---,0.00,VWS V14.01,2013-01-26 06:38:00,
2013-01-26 01:43:00,16.1,14.2,30.10,ESE,121,0.0,0.0,92,0.00,,---,0.00,VWS V14.01,2013-01-26 06:43:00,
2013-01-26 01:48:00,15.9,13.7,30.11,ESE,121,0.0,0.0,91,0.00,,---,0.00,VWS V14.01,2013-01-26 06:48:00,
2013-01-26 01:53:00,15.7,13.5,30.11,ESE,122,0.0,0.0,91,0.00,,---,0.00,VWS V14.01,2013-01-26 06:53:00,
2013-01-26 01:58:00,15.5,13.6,30.11,ESE,121,0.0,0.0,92,0.00,,---,0.00,VWS V14.01,2013-01-26 06:58:00,
2013-01-26 02:03:00,15.6,13.7,30.11,ESE,121,0.0,0.0,92,0.00,,---,0.00,VWS V14.01,2013-01-26 07:03:00,
2013-01-26 02:08:00,15.6,13.7,30.11,ESE,121,0.0,0.0,92,0.00,,---,0.00,VWS V14.01,2013-01-26 07:08:00,
2013-01-26 02:13:00,15.6,13.7,30.11,ESE,121,0.0,0.0,92,0.00,,---,0.00,VWS V14.01,2013-01-26 07:13:00,
2013-01-26 02:18:00,15.6,13.7,30.12,ESE,121,0.0,0.0,92,0.00,,---,0.00,VWS V14.01,2013-01-26 07:18:00,
2013-01-26 02:23:00,15.7,13.8,30.12,ESE,121,0.0,0.0,92,0.00,,---,0.00,VWS V14.01,2013-01-26 07:23:00,
2013-01-26 02:28:00,15.8,13.9,30.12,ESE,121,0.0,0.0,92,0.00,,---,0.00,VWS V14.01,2013-01-26 07:28:00,
2013-01-26 02:33:00,15.8,13.9,30.12,ESE,122,0.0,0.0,92,0.00,,---,0.00,VWS V14.01,2013-01-26 07:33:00,
2013-01-26 02:38:00,15.9,14.0,30.12,ESE,122,0.0,0.0,92,0.00,,---,0.00,VWS V14.01,2013-01-26 07:38:00,
2013-01-26 02:43:00,16.0,14.1,30.12,ESE,122,0.0,0.0,92,0.00,,---,0.00,VWS V14.01,2013-01-26 07:43:00,
2013-01-26 02:48:00,16.1,14.2,30.12,ESE,121,0.0,0.0,92,0.00,,---,0.00,VWS V14.01,2013-01-26 07:48:00,
2013-01-26 02:53:00,16.2,14.3,30.13,ESE,121,0.0,0.0,92,0.00,,---,0.00,VWS V14.01,2013-01-26 07:53:00,
2013-01-26 02:58:00,16.2,14.3,30.13,ESE,121,0.0,0.0,92,0.00,,---,0.00,VWS V14.01,2013-01-26 07:58:00,
2013-01-26 03:03:00,16.3,14.4,30.13,ESE,121,0.0,0.0,92,0.00,,---,0.00,VWS V14.01,2013-01-26 08:03:00,
2013-01-26 03:08:00,16.3,14.4,30.13,ESE,121,0.0,0.0,92,0.00,,---,0.00,VWS V14.01,2013-01-26 08:08:00,
2013-01-26 03:13:00,16.3,14.4,30.13,ESE,121,0.0,0.0,92,0.00,,---,0.00,VWS V14.01,2013-01-26 08:13:00,
2013-01-26 03:19:00,16.4,14.5,30.13,ESE,121,0.0,0.0,92,0.00,,---,0.00,VWS V14.01,2013-01-26 08:19:00,
2013-01-26 03:24:00,16.4,14.5,30.13,ESE,121,0.0,0.0,92,0.00,,---,0.00,VWS V14.01,2013-01-26 08:24:00,
2013-01-26 03:29:00,16.5,14.6,30.13,ESE,121,0.0,0.0,92,0.00,,---,0.00,VWS V14.01,2013-01-26 08:29:00,
2013-01-26 03:34:00,16.6,14.7,30.13,ESE,121,0.0,0.0,92,0.00,,---,0.00,VWS V14.01,2013-01-26 08:34:00,
2013-01-26 03:39:00,16.6,14.7,30.14,ESE,121,0.0,0.0,92,0.00,,---,0.00,VWS V14.01,2013-01-26 08:39:00,
2013-01-26 03:44:00,16.6,14.7,30.14,ESE,122,0.0,0.0,92,0.00,,---,0.00,VWS V14.01,2013-01-26 08:44:00,
2013-01-26 03:49:00,16.6,14.7,30.14,ESE,121,0.0,0.0,92,0.00,,---,0.00,VWS V14.01,2013-01-26 08:49:00,
2013-01-26 03:54:00,16.6,14.7,30.14,ESE,121,0.0,0.0,92,0.00,,---,0.00,VWS V14.01,2013-01-26 08:54:00,
2013-01-26 03:59:00,16.6,14.7,30.14,ESE,121,0.0,0.0,92,0.00,,---,0.00,VWS V14.01,2013-01-26 08:59:00,
2013-01-26 04:04:00,16.7,14.8,30.14,ESE,122,0.0,0.0,92,0.00,,---,0.00,VWS V14.01,2013-01-26 09:04:00,
2013-01-26 04:09:00,16.8,14.9,30.14,ESE,122,0.0,0.0,92,0.00,,---,0.00,VWS V14.01,2013-01-26 09:09:00,
2013-01-26 04:14:00,16.9,15.0,30.14,ESE,122,0.0,0.0,92,0.00,,---,0.00,VWS V14.01,2013-01-26 09:14:00,
2013-01-26 04:20:00,17.0,15.1,30.14,ESE,121,0.0,0.0,92,0.00,,---,0.00,VWS V14.01,2013-01-26 09:20:00,
2013-01-26 04:25:00,17.1,15.2,30.15,ESE,121,0.0,0.0,92,0.00,,---,0.00,VWS V14.01,2013-01-26 09:25:00,
2013-01-26 04:30:00,17.2,15.3,30.15,ESE,121,0.0,0.0,92,0.00,,---,0.00,VWS V14.01,2013-01-26 09:30:00,
2013-01-26 04:35:00,17.2,15.3,30.15,ESE,121,0.0,0.0,92,0.00,,---,0.00,VWS V14.01,2013-01-26 09:35:00,
2013-01-26 04:40:00,17.2,15.3,30.15,ESE,121,0.0,0.0,92,0.00,,---,0.00,VWS V14.01,2013-01-26 09:40:00,
2013-01-26 04:45:00,17.2,15.3,30.15,ESE,122,0.0,0.0,92,0.00,,---,0.00,VWS V14.01,2013-01-26 09:45:00,
2013-01-26 04:50:00,17.2,15.3,30.15,ESE,122,0.0,0.0,92,0.00,,---,0.00,VWS V14.01,2013-01-26 09:50:00,
2013-01-26 04:55:00,17.1,15.2,30.15,ESE,121,0.0,0.0,92,0.00,,---,0.00,VWS V14.01,2013-01-26 09:55:00,
2013-01-26 05:00:00,17.1,15.2,30.15,ESE,121,0.0,0.0,92,0.00,,---,0.00,VWS V14.01,2013-01-26 10:00:00,
2013-01-26 05:05:00,17.1,15.2,30.16,ESE,121,0.0,0.0,92,0.00,,---,0.00,VWS V14.01,2013-01-26 10:05:00,
2013-01-26 05:10:00,17.1,15.2,30.16,ESE,121,0.0,0.0,92,0.00,,---,0.00,VWS V14.01,2013-01-26 10:10:00,
2013-01-26 05:15:00,17.0,15.1,30.16,ESE,121,0.0,0.0,92,0.00,,---,0.00,VWS V14.01,2013-01-26 10:15:00,
2013-01-26 05:20:00,17.0,15.1,30.16,ESE,121,0.0,0.0,92,0.00,,---,0.00,VWS V14.01,2013-01-26 10:20:00,
2013-01-26 05:25:00,17.0,15.1,30.17,ESE,121,0.0,0.0,92,0.00,,---,0.00,VWS V14.01,2013-01-26 10:25:00,
2013-01-26 05:30:00,16.9,15.0,30.17,ESE,121,0.0,0.0,92,0.00,,---,0.00,VWS V14.01,2013-01-26 10:30:00,
2013-01-26 05:35:00,16.8,14.9,30.17,ESE,121,0.0,0.0,92,0.00,,---,0.00,VWS V14.01,2013-01-26 10:35:00,
2013-01-26 05:40:00,16.8,14.9,30.17,ESE,121,0.0,0.0,92,0.00,,---,0.00,VWS V14.01,2013-01-26 10:40:00,
2013-01-26 05:46:00,16.7,14.8,30.18,ESE,121,0.0,0.0,92,0.00,,---,0.00,VWS V14.01,2013-01-26 10:46:00,
2013-01-26 05:51:00,16.7,14.8,30.18,ESE,121,0.0,0.0,92,0.00,,---,0.00,VWS V14.01,2013-01-26 10:51:00,
2013-01-26 05:56:00,16.7,14.8,30.18,ESE,121,0.0,0.0,92,0.00,,---,0.00,VWS V14.01,2013-01-26 10:56:00,
2013-01-26 06:01:00,16.6,14.7,30.18,ESE,121,0.0,0.0,92,0.00,,---,0.00,VWS V14.01,2013-01-26 11:01:00,
2013-01-26 06:06:00,16.7,14.8,30.18,ESE,121,0.0,0.0,92,0.00,,---,0.00,VWS V14.01,2013-01-26 11:06:00,
2013-01-26 06:11:00,16.7,14.8,30.18,ESE,121,0.0,0.0,92,0.00,,---,0.00,VWS V14.01,2013-01-26 11:11:00,
2013-01-26 06:16:00,16.7,14.8,30.18,ESE,122,0.0,0.0,92,0.00,,---,0.00,VWS V14.01,2013-01-26 11:16:00,
2013-01-26 06:21:00,16.7,14.8,30.18,ESE,121,0.0,0.0,92,0.00,,---,0.00,VWS V14.01,2013-01-26 11:21:00,
2013-01-26 06:26:00,16.7,14.8,30.19,ESE,121,0.0,0.0,92,0.00,,---,0.00,VWS V14.01,2013-01-26 11:26:00,
2013-01-26 06:31:00,16.7,14.8,30.18,ESE,121,0.0,0.0,92,0.00,,---,0.00,VWS V14.01,2013-01-26 11:31:00,
2013-01-26 06:36:00,16.7,14.8,30.19,ESE,121,0.0,0.0,92,0.00,,---,0.00,VWS V14.01,2013-01-26 11:36:00,
2013-01-26 06:41:00,16.7,14.8,30.19,ESE,121,0.0,0.0,92,0.00,,---,0.00,VWS V14.01,2013-01-26 11:41:00,
2013-01-26 06:46:00,16.7,14.8,30.19,ESE,121,0.0,0.0,92,0.00,,---,0.00,VWS V14.01,2013-01-26 11:46:00,
2013-01-26 06:51:00,16.7,14.8,30.19,ESE,121,0.0,0.0,92,0.00,,---,0.00,VWS V14.01,2013-01-26 11:51:00,
2013-01-26 06:57:00,16.7,14.8,30.19,ESE,121,0.0,0.0,92,0.00,,---,0.00,VWS V14.01,2013-01-26 11:57:00,
2013-01-26 07:02:00,16.7,14.8,30.20,ESE,121,0.0,0.0,92,0.00,,---,0.00,VWS V14.01,2013-01-26 12:02:00,
2013-01-26 07:07:00,16.7,14.8,30.20,ESE,121,0.0,0.0,92,0.00,,---,0.00,VWS V14.01,2013-01-26 12:07:00,
2013-01-26 07:12:00,16.8,15.1,30.20,ESE,122,0.0,0.0,93,0.00,,---,0.00,VWS V14.01,2013-01-26 12:12:00,
2013-01-26 07:17:00,17.0,15.3,30.20,ESE,121,0.0,0.0,93,0.00,,---,0.00,VWS V14.01,2013-01-26 12:17:00,
2013-01-26 07:22:00,17.2,15.5,30.20,ESE,121,0.0,0.0,93,0.00,,---,0.00,VWS V14.01,2013-01-26 12:22:00,
2013-01-26 07:27:00,17.2,15.3,30.20,ESE,122,0.0,0.0,92,0.00,,---,0.00,VWS V14.01,2013-01-26 12:27:00,
2013-01-26 07:32:00,17.2,15.3,30.20,ESE,122,0.0,0.0,92,0.00,,---,0.00,VWS V14.01,2013-01-26 12:32:00,
2013-01-26 07:37:00,17.1,15.2,30.21,ESE,122,0.0,0.0,92,0.00,,---,0.00,VWS V14.01,2013-01-26 12:37:00,
2013-01-26 07:42:00,17.2,15.3,30.21,ESE,121,0.0,0.0,92,0.00,,---,0.00,VWS V14.01,2013-01-26 12:42:00,
2013-01-26 07:47:00,17.4,15.7,30.21,ESE,123,0.0,0.0,93,0.00,,---,0.00,VWS V14.01,2013-01-26 12:47:00,
2013-01-26 07:52:00,17.5,15.8,30.21,ESE,121,0.0,0.0,93,0.00,,---,0.00,VWS V14.01,2013-01-26 12:52:00,
2013-01-26 07:57:00,17.7,16.0,30.21,ESE,121,0.0,0.0,93,0.00,,---,0.00,VWS V14.01,2013-01-26 12:57:00,
2013-01-26 08:02:00,17.9,16.2,30.21,ESE,121,0.0,0.0,93,0.00,,---,0.00,VWS V14.01,2013-01-26 13:02:00,
2013-01-26 08:08:00,18.1,16.4,30.21,ESE,122,0.0,0.0,93,0.00,,---,0.00,VWS V14.01,2013-01-26 13:08:00,
2013-01-26 08:13:00,18.3,16.6,30.21,ESE,122,0.0,0.0,93,0.00,,---,0.00,VWS V14.01,2013-01-26 13:13:00,
2013-01-26 08:18:00,18.5,16.6,30.22,ESE,122,0.0,0.0,92,0.00,,---,0.00,VWS V14.01,2013-01-26 13:18:00,
2013-01-26 08:23:00,18.8,17.1,30.22,ESE,122,0.0,0.0,93,0.00,,---,0.00,VWS V14.01,2013-01-26 13:23:00,
2013-01-26 08:28:00,19.1,17.4,30.22,ESE,123,0.0,0.0,93,0.00,,---,0.00,VWS V14.01,2013-01-26 13:28:00,
2013-01-26 08:33:00,19.4,17.7,30.22,ESE,122,0.0,0.0,93,0.00,,---,0.00,VWS V14.01,2013-01-26 13:33:00,
2013-01-26 08:38:00,19.6,17.9,30.22,ESE,122,0.0,0.0,93,0.00,,---,0.00,VWS V14.01,2013-01-26 13:38:00,
2013-01-26 08:43:00,19.7,18.0,30.23,ESE,123,0.0,0.0,93,0.00,,---,0.00,VWS V14.01,2013-01-26 13:43:00,
2013-01-26 08:48:00,19.7,18.0,30.23,ESE,122,0.0,0.0,93,0.00,,---,0.00,VWS V14.01,2013-01-26 13:48:00,
2013-01-26 08:53:00,19.8,17.9,30.23,ESE,122,0.0,0.0,92,0.00,,---,0.00,VWS V14.01,2013-01-26 13:53:00,
2013-01-26 08:58:00,19.8,17.9,30.23,ESE,120,0.0,0.0,92,0.00,,---,0.00,VWS V14.01,2013-01-26 13:58:00,
2013-01-26 09:03:00,19.9,18.0,30.23,ESE,120,0.0,0.0,92,0.00,,---,0.00,VWS V14.01,2013-01-26 14:03:00,
2013-01-26 09:08:00,20.1,18.1,30.23,ESE,120,0.0,0.0,92,0.00,,---,0.00,VWS V14.01,2013-01-26 14:08:00,
2013-01-26 09:13:00,20.4,18.5,30.23,ESE,120,0.0,0.0,92,0.00,,---,0.00,VWS V14.01,2013-01-26 14:13:00,
2013-01-26 09:18:00,20.7,18.8,30.24,ESE,120,0.0,0.0,92,0.00,,---,0.00,VWS V14.01,2013-01-26 14:18:00,
2013-01-26 09:23:00,20.8,18.9,30.24,ESE,117,0.0,0.0,92,0.00,,---,0.00,VWS V14.01,2013-01-26 14:23:00,
2013-01-26 09:28:00,20.8,18.6,30.24,SE,129,0.0,0.0,91,0.00,,---,0.00,VWS V14.01,2013-01-26 14:28:00,
2013-01-26 09:33:00,20.9,18.7,30.24,SE,124,0.0,1.0,91,0.00,,---,0.00,VWS V14.01,2013-01-26 14:33:00,
2013-01-26 09:38:00,21.1,18.9,30.25,ESE,122,0.0,0.0,91,0.00,,---,0.00,VWS V14.01,2013-01-26 14:38:00,
2013-01-26 09:43:00,21.4,19.2,30.25,ESE,122,0.0,0.0,91,0.00,,---,0.00,VWS V14.01,2013-01-26 14:43:00,
2013-01-26 09:48:00,21.5,19.0,30.25,ESE,123,0.0,0.0,90,0.00,,---,0.00,VWS V14.01,2013-01-26 14:48:00,
2013-01-26 09:53:00,21.8,19.3,30.25,ESE,123,0.0,0.0,90,0.00,,---,0.00,VWS V14.01,2013-01-26 14:53:00,
2013-01-26 09:59:00,22.5,20.0,30.26,SW,231,0.0,0.0,90,0.00,,---,0.00,VWS V14.01,2013-01-26 14:59:00,
2013-01-26 10:04:00,23.1,20.4,30.26,ENE,72,0.0,0.0,89,0.00,,---,0.00,VWS V14.01,2013-01-26 15:04:00,
2013-01-26 10:09:00,23.6,20.3,30.26,NNE,19,0.0,1.0,87,0.00,,---,0.00,VWS V14.01,2013-01-26 15:09:00,
2013-01-26 10:14:00,24.0,20.4,30.26,NE,37,0.0,1.0,86,0.00,,---,0.00,VWS V14.01,2013-01-26 15:14:00,
2013-01-26 10:19:00,24.2,20.1,30.26,WNW,288,0.0,1.0,84,0.00,,---,0.00,VWS V14.01,2013-01-26 15:19:00,
2013-01-26 10:24:00,24.5,20.1,30.26,SW,217,0.0,2.0,83,0.00,,---,0.00,VWS V14.01,2013-01-26 15:24:00,
2013-01-26 10:29:00,24.6,19.9,30.27,NW,312,1.0,2.0,82,0.00,,---,0.00,VWS V14.01,2013-01-26 15:29:00,
2013-01-26 10:34:00,24.7,20.3,30.27,WNW,287,0.0,0.0,83,0.00,,---,0.00,VWS V14.01,2013-01-26 15:34:00,
2013-01-26 10:39:00,25.5,21.4,30.27,WNW,293,2.0,2.0,84,0.00,,---,0.00,VWS V14.01,2013-01-26 15:39:00,
2013-01-26 10:44:00,25.8,21.1,30.27,WSW,245,0.0,1.0,82,0.00,,---,0.00,VWS V14.01,2013-01-26 15:44:00,
2013-01-26 10:49:00,26.2,21.5,30.27,SW,224,0.0,1.0,82,0.00,,---,0.00,VWS V14.01,2013-01-26 15:49:00,
2013-01-26 10:54:00,26.2,20.9,30.27,NNE,30,0.0,4.0,80,0.00,,---,0.00,VWS V14.01,2013-01-26 15:54:00,
2013-01-26 10:59:00,26.1,21.1,30.27,NNE,13,1.0,2.0,81,0.00,,---,0.00,VWS V14.01,2013-01-26 15:59:00,
2013-01-26 11:04:00,26.2,20.9,30.28,West,275,0.0,1.0,80,0.00,,---,0.00,VWS V14.01,2013-01-26 16:04:00,
2013-01-26 11:09:00,26.5,21.2,30.28,WSW,252,1.0,1.0,80,0.00,,---,0.00,VWS V14.01,2013-01-26 16:09:00,
2013-01-26 11:14:00,26.8,20.9,30.28,WNW,287,0.0,1.0,78,0.00,,---,0.00,VWS V14.01,2013-01-26 16:14:00,
2013-01-26 11:19:00,26.9,21.3,30.28,WNW,295,0.0,0.0,79,0.00,,---,0.00,VWS V14.01,2013-01-26 16:19:00,
2013-01-26 11:25:00,26.7,20.8,30.28,West,260,0.0,0.0,78,0.00,,---,0.00,VWS V14.01,2013-01-26 16:25:00,
2013-01-26 11:30:00,26.9,21.0,30.27,WNW,301,0.0,1.0,78,0.00,,---,0.00,VWS V14.01,2013-01-26 16:30:00,
2013-01-26 11:35:00,26.7,20.8,30.27,WSW,246,0.0,1.0,78,0.00,,---,0.00,VWS V14.01,2013-01-26 16:35:00,
2013-01-26 11:40:00,26.8,20.9,30.27,North,351,0.0,1.0,78,0.00,,---,0.00,VWS V14.01,2013-01-26 16:40:00,
2013-01-26 11:45:00,26.9,21.0,30.27,NNW,335,1.0,1.0,78,0.00,,---,0.00,VWS V14.01,2013-01-26 16:45:00,
2013-01-26 11:50:00,26.7,20.8,30.26,North,8,0.0,1.0,78,0.00,,---,0.00,VWS V14.01,2013-01-26 16:50:00,
2013-01-26 11:55:00,26.7,20.8,30.26,NE,56,0.0,0.0,78,0.00,,---,0.00,VWS V14.01,2013-01-26 16:55:00,
2013-01-26 12:00:00,27.0,20.8,30.25,WNW,291,0.0,0.0,77,0.00,,---,0.00,VWS V14.01,2013-01-26 17:00:00,
2013-01-26 12:05:00,27.1,20.9,30.25,ENE,63,0.0,1.0,77,0.00,,---,0.00,VWS V14.01,2013-01-26 17:05:00,
2013-01-26 12:10:00,27.0,20.8,30.25,NNE,24,0.0,1.0,77,0.00,,---,0.00,VWS V14.01,2013-01-26 17:10:00,
2013-01-26 12:15:00,27.1,20.9,30.24,North,8,0.0,0.0,77,0.00,,---,0.00,VWS V14.01,2013-01-26 17:15:00,
2013-01-26 12:21:00,27.4,20.8,30.24,NW,307,0.0,0.0,76,0.00,,---,0.00,VWS V14.01,2013-01-26 17:21:00,
2013-01-26 12:26:00,27.5,20.6,30.25,WNW,298,0.0,0.0,75,0.00,,---,0.00,VWS V14.01,2013-01-26 17:26:00,
2013-01-26 12:31:00,27.6,21.0,30.24,NNE,22,0.0,0.0,76,0.00,,---,0.00,VWS V14.01,2013-01-26 17:31:00,
2013-01-26 12:36:00,28.0,21.1,30.25,NE,41,1.0,2.0,75,0.00,,---,0.00,VWS V14.01,2013-01-26 17:36:00,
2013-01-26 12:41:00,28.0,21.4,30.25,WNW,299,0.0,0.0,76,0.00,,---,0.00,VWS V14.01,2013-01-26 17:41:00,
2013-01-26 12:46:00,28.5,21.6,30.24,WSW,238,0.0,1.0,75,0.00,,---,0.00,VWS V14.01,2013-01-26 17:46:00,
2013-01-26 12:51:00,29.1,21.9,30.24,SSW,205,0.0,0.0,74,0.00,,---,0.00,VWS V14.01,2013-01-26 17:51:00,
2013-01-26 12:56:00,29.2,22.0,30.24,South,179,0.0,0.0,74,0.00,,---,0.00,VWS V14.01,2013-01-26 17:56:00,
2013-01-26 13:01:00,29.4,21.5,30.24,WNW,300,1.0,2.0,72,0.00,,---,0.00,VWS V14.01,2013-01-26 18:01:00,
2013-01-26 13:06:00,29.0,21.1,30.24,NW,310,0.0,0.0,72,0.00,,---,0.00,VWS V14.01,2013-01-26 18:06:00,
2013-01-26 13:11:00,28.6,21.1,30.24,NNW,335,0.0,0.0,73,0.00,,---,0.00,VWS V14.01,2013-01-26 18:11:00,
2013-01-26 13:17:00,28.2,21.0,30.24,NNE,15,0.0,0.0,74,0.00,,---,0.00,VWS V14.01,2013-01-26 18:17:00,
2013-01-26 13:22:00,28.0,21.1,30.24,NNE,18,1.0,1.0,75,0.00,,---,0.00,VWS V14.01,2013-01-26 18:22:00,
2013-01-26 13:27:00,27.9,21.0,30.24,NE,41,2.0,2.0,75,0.00,,---,0.00,VWS V14.01,2013-01-26 18:27:00,
2013-01-26 13:32:00,27.8,20.9,30.24,NNE,26,1.0,1.0,75,0.00,,---,0.00,VWS V14.01,2013-01-26 18:32:00,
2013-01-26 13:37:00,28.1,21.5,30.25,North,1,1.0,2.0,76,0.00,,---,0.00,VWS V14.01,2013-01-26 18:37:00,
2013-01-26 13:42:00,28.0,21.1,30.25,ENE,65,0.0,2.0,75,0.00,,---,0.00,VWS V14.01,2013-01-26 18:42:00,
2013-01-26 13:47:00,27.9,21.0,30.25,WNW,291,0.0,0.0,75,0.00,,---,0.00,VWS V14.01,2013-01-26 18:47:00,
2013-01-26 13:52:00,28.0,21.1,30.25,NNE,32,0.0,2.0,75,0.00,,---,0.00,VWS V14.01,2013-01-26 18:52:00,
2013-01-26 13:57:00,27.9,20.7,30.24,West,276,0.0,0.0,74,0.01,,---,0.01,VWS V14.01,2013-01-26 18:57:00,
2013-01-26 14:02:00,28.1,21.5,30.24,North,11,0.0,1.0,76,0.01,,---,0.01,VWS V14.01,2013-01-26 19:02:00,
2013-01-26 14:07:00,28.2,21.3,30.24,NW,319,0.0,0.0,75,0.01,,---,0.01,VWS V14.01,2013-01-26 19:07:00,
2013-01-26 14:12:00,28.4,21.5,30.25,North,8,0.0,0.0,75,0.01,,---,0.01,VWS V14.01,2013-01-26 19:12:00,
2013-01-26 14:17:00,28.6,21.7,30.25,NW,319,1.0,1.0,75,0.01,,---,0.01,VWS V14.01,2013-01-26 19:17:00,
2013-01-26 14:22:00,28.5,21.3,30.25,NW,316,0.0,0.0,74,0.01,,---,0.01,VWS V14.01,2013-01-26 19:22:00,
2013-01-26 14:27:00,28.5,21.6,30.25,North,8,0.0,1.0,75,0.01,,---,0.01,VWS V14.01,2013-01-26 19:27:00,
2013-01-26 14:32:00,28.2,21.3,30.25,NE,44,1.0,1.0,75,0.01,,---,0.01,VWS V14.01,2013-01-26 19:32:00,
2013-01-26 14:37:00,28.0,21.7,30.25,NE,42,0.0,0.0,77,0.01,,---,0.01,VWS V14.01,2013-01-26 19:37:00,
2013-01-26 14:42:00,28.1,21.8,30.25,NNE,26,0.0,0.0,77,0.01,,---,0.01,VWS V14.01,2013-01-26 19:42:00,
2013-01-26 14:47:00,28.2,21.9,30.25,NW,320,0.0,2.0,77,0.01,,---,0.01,VWS V14.01,2013-01-26 19:47:00,
2013-01-26 14:52:00,28.1,22.1,30.26,NNW,333,0.0,1.0,78,0.01,,---,0.01,VWS V14.01,2013-01-26 19:52:00,
2013-01-26 14:57:00,28.2,22.2,30.26,NNW,333,0.0,0.0,78,0.00,,---,0.01,VWS V14.01,2013-01-26 19:57:00,
2013-01-26 15:02:00,28.2,22.5,30.26,NW,310,0.0,0.0,79,0.00,,---,0.01,VWS V14.01,2013-01-26 20:02:00,
2013-01-26 15:07:00,28.0,22.0,30.26,WNW,283,0.0,0.0,78,0.00,,---,0.01,VWS V14.01,2013-01-26 20:07:00,
2013-01-26 15:12:00,27.7,22.0,30.26,NW,315,0.0,0.0,79,0.00,,---,0.01,VWS V14.01,2013-01-26 20:12:00,
2013-01-26 15:17:00,27.4,22.0,30.26,NE,56,0.0,0.0,80,0.00,,---,0.01,VWS V14.01,2013-01-26 20:17:00,
2013-01-26 15:22:00,27.4,22.4,30.27,ENE,57,0.0,1.0,81,0.00,,---,0.01,VWS V14.01,2013-01-26 20:22:00,
2013-01-26 15:27:00,27.3,22.5,30.27,West,273,0.0,0.0,82,0.00,,---,0.01,VWS V14.01,2013-01-26 20:27:00,
2013-01-26 15:32:00,27.4,22.6,30.27,West,273,0.0,1.0,82,0.00,,---,0.01,VWS V14.01,2013-01-26 20:32:00,
2013-01-26 15:37:00,27.2,22.4,30.27,NE,34,0.0,0.0,82,0.00,,---,0.01,VWS V14.01,2013-01-26 20:37:00,
2013-01-26 15:42:00,27.1,22.9,30.27,NE,34,0.0,0.0,84,0.00,,---,0.01,VWS V14.01,2013-01-26 20:42:00,
2013-01-26 15:47:00,27.1,22.9,30.28,NE,34,0.0,0.0,84,0.00,,---,0.01,VWS V14.01,2013-01-26 20:47:00,
2013-01-26 15:52:00,27.0,22.8,30.28,WNW,298,0.0,0.0,84,0.00,,---,0.01,VWS V14.01,2013-01-26 20:52:00,
2013-01-26 15:57:00,26.9,23.0,30.28,WNW,298,0.0,1.0,85,0.00,,---,0.01,VWS V14.01,2013-01-26 20:57:00,
2013-01-26 16:02:00,26.8,22.9,30.28,WNW,298,0.0,0.0,85,0.00,,---,0.01,VWS V14.01,2013-01-26 21:02:00,
2013-01-26 16:07:00,26.8,23.2,30.28,WNW,298,0.0,0.0,86,0.00,,---,0.01,VWS V14.01,2013-01-26 21:07:00,
2013-01-26 16:13:00,26.6,23.0,30.28,WNW,300,0.0,0.0,86,0.00,,---,0.01,VWS V14.01,2013-01-26 21:13:00,
2013-01-26 16:18:00,26.5,22.9,30.29,WNW,300,0.0,0.0,86,0.00,,---,0.01,VWS V14.01,2013-01-26 21:18:00,
2013-01-26 16:23:00,26.3,22.7,30.28,NW,319,0.0,0.0,86,0.00,,---,0.01,VWS V14.01,2013-01-26 21:23:00,
2013-01-26 16:28:00,26.0,22.4,30.28,NW,322,1.0,1.0,86,0.00,,---,0.01,VWS V14.01,2013-01-26 21:28:00,
2013-01-26 16:33:00,25.7,22.4,30.29,NW,316,0.0,0.0,87,0.00,,---,0.01,VWS V14.01,2013-01-26 21:33:00,
2013-01-26 16:38:00,25.5,22.2,30.29,NW,316,0.0,0.0,87,0.00,,---,0.01,VWS V14.01,2013-01-26 21:38:00,
2013-01-26 16:43:00,25.3,22.2,30.29,NW,316,0.0,0.0,88,0.00,,---,0.01,VWS V14.01,2013-01-26 21:43:00,
2013-01-26 16:48:00,25.1,22.0,30.29,NW,316,0.0,0.0,88,0.00,,---,0.01,VWS V14.01,2013-01-26 21:48:00,
2013-01-26 16:53:00,24.9,22.1,30.29,NW,316,0.0,0.0,89,0.00,,---,0.01,VWS V14.01,2013-01-26 21:53:00,
2013-01-26 16:58:00,24.9,22.1,30.29,WNW,295,0.0,0.0,89,0.00,,---,0.01,VWS V14.01,2013-01-26 21:58:00,
2013-01-26 17:03:00,24.9,22.1,30.30,East,81,0.0,0.0,89,0.00,,---,0.01,VWS V14.01,2013-01-26 22:03:00,
2013-01-26 17:08:00,24.8,22.0,30.30,East,80,0.0,0.0,89,0.00,,---,0.01,VWS V14.01,2013-01-26 22:08:00,
2013-01-26 17:14:00,24.7,21.9,30.30,West,260,0.0,0.0,89,0.00,,---,0.01,VWS V14.01,2013-01-26 22:14:00,
2013-01-26 17:19:00,24.5,22.0,30.30,West,266,0.0,0.0,90,0.00,,---,0.01,VWS V14.01,2013-01-26 22:19:00,
2013-01-26 17:24:00,24.5,22.0,30.30,NW,304,0.0,0.0,90,0.00,,---,0.01,VWS V14.01,2013-01-26 22:24:00,
2013-01-26 17:29:00,24.7,22.2,30.31,SW,224,0.0,0.0,90,0.00,,---,0.01,VWS V14.01,2013-01-26 22:29:00,
2013-01-26 17:34:00,24.8,22.3,30.31,SW,224,0.0,0.0,90,0.00,,---,0.01,VWS V14.01,2013-01-26 22:34:00,
2013-01-26 17:39:00,24.8,22.3,30.31,SW,224,0.0,0.0,90,0.00,,---,0.01,VWS V14.01,2013-01-26 22:39:00,
2013-01-26 17:44:00,24.6,22.1,30.31,SW,224,0.0,0.0,90,0.00,,---,0.01,VWS V14.01,2013-01-26 22:44:00,
2013-01-26 17:49:00,24.5,22.0,30.32,SW,224,0.0,0.0,90,0.00,,---,0.01,VWS V14.01,2013-01-26 22:49:00,
2013-01-26 17:54:00,24.3,21.8,30.32,SW,224,0.0,0.0,90,0.00,,---,0.01,VWS V14.01,2013-01-26 22:54:00,
2013-01-26 18:00:00,24.2,21.7,30.33,SW,224,0.0,0.0,90,0.00,,---,0.01,VWS V14.01,2013-01-26 23:00:00,
2013-01-26 18:05:00,24.2,22.0,30.33,SW,224,0.0,0.0,91,0.00,,---,0.01,VWS V14.01,2013-01-26 23:05:00,
2013-01-26 18:10:00,24.2,22.0,30.33,SW,224,0.0,0.0,91,0.00,,---,0.01,VWS V14.01,2013-01-26 23:10:00,
2013-01-26 18:15:00,24.2,22.0,30.33,SW,224,0.0,0.0,91,0.00,,---,0.01,VWS V14.01,2013-01-26 23:15:00,
2013-01-26 18:20:00,24.2,22.0,30.33,SW,224,0.0,0.0,91,0.00,,---,0.01,VWS V14.01,2013-01-26 23:20:00,
2013-01-26 18:25:00,24.2,22.0,30.33,SW,224,0.0,0.0,91,0.00,,---,0.01,VWS V14.01,2013-01-26 23:25:00,
2013-01-26 18:30:00,24.1,21.9,30.34,SW,224,0.0,0.0,91,0.00,,---,0.01,VWS V14.01,2013-01-26 23:30:00,
2013-01-26 18:35:00,24.1,21.9,30.34,SW,224,0.0,0.0,91,0.00,,---,0.01,VWS V14.01,2013-01-26 23:35:00,
2013-01-26 18:40:00,24.1,22.1,30.34,SW,224,0.0,0.0,92,0.00,,---,0.01,VWS V14.01,2013-01-26 23:40:00,
2013-01-26 18:45:00,24.1,22.1,30.34,WSW,241,0.0,0.0,92,0.00,,---,0.01,VWS V14.01,2013-01-26 23:45:00,
2013-01-26 18:50:00,24.1,22.1,30.34,West,274,0.0,1.0,92,0.00,,---,0.01,VWS V14.01,2013-01-26 23:50:00,
2013-01-26 18:55:00,24.2,22.2,30.34,West,274,0.0,0.0,92,0.00,,---,0.01,VWS V14.01,2013-01-26 23:55:00,
2013-01-26 19:01:00,24.3,22.3,30.35,West,274,0.0,0.0,92,0.00,,---,0.01,VWS V14.01,2013-01-27 00:01:00,
2013-01-26 19:05:00,24.3,22.3,30.35,West,274,0.0,0.0,92,0.00,,---,0.01,VWS V14.01,2013-01-27 00:05:00,
2013-01-26 19:11:00,24.2,22.2,30.35,West,275,0.0,0.0,92,0.00,,---,0.01,VWS V14.01,2013-01-27 00:11:00,
2013-01-26 19:16:00,24.2,22.2,30.35,West,274,0.0,0.0,92,0.00,,---,0.01,VWS V14.01,2013-01-27 00:16:00,
2013-01-26 19:21:00,24.2,22.2,30.35,West,274,0.0,0.0,92,0.00,,---,0.01,VWS V14.01,2013-01-27 00:21:00,
2013-01-26 19:26:00,24.3,22.3,30.35,West,274,0.0,0.0,92,0.00,,---,0.01,VWS V14.01,2013-01-27 00:26:00,
2013-01-26 19:31:00,24.3,22.3,30.36,West,274,0.0,0.0,92,0.00,,---,0.01,VWS V14.01,2013-01-27 00:31:00,
2013-01-26 19:36:00,24.3,22.6,30.36,West,274,0.0,0.0,93,0.00,,---,0.01,VWS V14.01,2013-01-27 00:36:00,
2013-01-26 19:41:00,24.3,22.3,30.36,West,271,0.0,0.0,92,0.00,,---,0.01,VWS V14.01,2013-01-27 00:41:00,
2013-01-26 19:46:00,24.3,22.3,30.36,West,271,0.0,0.0,92,0.00,,---,0.01,VWS V14.01,2013-01-27 00:46:00,
2013-01-26 19:51:00,24.3,22.3,30.36,West,271,0.0,0.0,92,0.00,,---,0.01,VWS V14.01,2013-01-27 00:51:00,
2013-01-26 19:56:00,24.3,22.3,30.37,West,271,0.0,0.0,92,0.00,,---,0.01,VWS V14.01,2013-01-27 00:56:00,
2013-01-26 20:01:00,24.3,22.3,30.37,West,271,0.0,0.0,92,0.00,,---,0.01,VWS V14.01,2013-01-27 01:01:00,
2013-01-26 20:06:00,24.3,22.3,30.37,West,271,0.0,0.0,92,0.00,,---,0.01,VWS V14.01,2013-01-27 01:06:00,
2013-01-26 20:11:00,24.3,22.3,30.37,West,271,0.0,0.0,92,0.00,,---,0.01,VWS V14.01,2013-01-27 01:11:00,
2013-01-26 20:16:00,24.3,22.3,30.37,West,271,0.0,0.0,92,0.00,,---,0.01,VWS V14.01,2013-01-27 01:16:00,
2013-01-26 20:21:00,24.3,22.3,30.37,West,271,0.0,0.0,92,0.00,,---,0.01,VWS V14.01,2013-01-27 01:21:00,
2013-01-26 20:26:00,24.3,22.3,30.37,West,271,0.0,0.0,92,0.00,,---,0.01,VWS V14.01,2013-01-27 01:26:00,
2013-01-26 20:31:00,24.3,22.1,30.37,WNW,284,0.0,1.0,91,0.00,,---,0.01,VWS V14.01,2013-01-27 01:31:00,
2013-01-26 20:36:00,24.3,22.1,30.38,WNW,282,0.0,0.0,91,0.00,,---,0.01,VWS V14.01,2013-01-27 01:36:00,
2013-01-26 20:41:00,24.3,21.8,30.38,WNW,283,0.0,0.0,90,0.00,,---,0.01,VWS V14.01,2013-01-27 01:41:00,
2013-01-26 20:46:00,24.4,21.9,30.38,WNW,284,0.0,0.0,90,0.00,,---,0.01,VWS V14.01,2013-01-27 01:46:00,
2013-01-26 20:51:00,24.3,21.8,30.37,WNW,284,0.0,0.0,90,0.00,,---,0.01,VWS V14.01,2013-01-27 01:51:00,
2013-01-26 20:56:00,24.2,21.4,30.38,West,276,0.0,0.0,89,0.00,,---,0.01,VWS V14.01,2013-01-27 01:56:00,
2013-01-26 21:02:00,23.8,21.0,30.39,West,274,0.0,0.0,89,0.00,,---,0.01,VWS V14.01,2013-01-27 02:02:00,
2013-01-26 21:07:00,23.5,20.7,30.39,WSW,256,0.0,0.0,89,0.00,,---,0.01,VWS V14.01,2013-01-27 02:07:00,
2013-01-26 21:12:00,23.2,20.5,30.40,WSW,256,0.0,0.0,89,0.00,,---,0.01,VWS V14.01,2013-01-27 02:12:00,
2013-01-26 21:17:00,22.9,20.1,30.40,SW,233,0.0,0.0,89,0.00,,---,0.01,VWS V14.01,2013-01-27 02:17:00,
2013-01-26 21:22:00,22.8,20.3,30.40,SW,231,0.0,0.0,90,0.00,,---,0.01,VWS V14.01,2013-01-27 02:22:00,
2013-01-26 21:27:00,22.7,20.2,30.40,SW,231,0.0,0.0,90,0.00,,---,0.01,VWS V14.01,2013-01-27 02:27:00,
2013-01-26 21:32:00,22.7,20.5,30.40,WSW,257,0.0,0.0,91,0.00,,---,0.01,VWS V14.01,2013-01-27 02:32:00,
2013-01-26 21:37:00,22.7,20.5,30.41,WSW,257,0.0,1.0,91,0.00,,---,0.01,VWS V14.01,2013-01-27 02:37:00,
2013-01-26 21:42:00,22.6,20.4,30.41,WSW,257,0.0,0.0,91,0.00,,---,0.01,VWS V14.01,2013-01-27 02:42:00,
2013-01-26 21:47:00,22.6,20.6,30.41,WSW,257,0.0,0.0,92,0.00,,---,0.01,VWS V14.01,2013-01-27 02:47:00,
2013-01-26 21:52:00,22.5,20.3,30.41,WSW,257,0.0,1.0,91,0.00,,---,0.01,VWS V14.01,2013-01-27 02:52:00,
2013-01-26 21:57:00,22.5,20.3,30.42,West,270,0.0,0.0,91,0.00,,---,0.01,VWS V14.01,2013-01-27 02:57:00,
2013-01-26 22:02:00,22.5,20.3,30.42,West,270,0.0,0.0,91,0.00,,---,0.01,VWS V14.01,2013-01-27 03:02:00,
2013-01-26 22:07:00,22.7,20.5,30.42,West,263,0.0,0.0,91,0.00,,---,0.01,VWS V14.01,2013-01-27 03:07:00,
2013-01-26 22:12:00,22.8,20.3,30.42,WSW,255,0.0,0.0,90,0.00,,---,0.01,VWS V14.01,2013-01-27 03:12:00,
2013-01-26 22:17:00,22.7,20.0,30.42,West,272,0.0,0.0,89,0.00,,---,0.01,VWS V14.01,2013-01-27 03:17:00,
2013-01-26 22:22:00,22.7,20.0,30.42,WNW,284,0.0,0.0,89,0.00,,---,0.01,VWS V14.01,2013-01-27 03:22:00,
2013-01-26 22:27:00,22.9,19.9,30.43,NW,311,0.0,0.0,88,0.00,,---,0.01,VWS V14.01,2013-01-27 03:27:00,
2013-01-26 22:32:00,23.1,19.8,30.43,NW,311,0.0,0.0,87,0.00,,---,0.01,VWS V14.01,2013-01-27 03:32:00,
2013-01-26 22:37:00,23.2,19.6,30.43,WNW,302,0.0,1.0,86,0.00,,---,0.01,VWS V14.01,2013-01-27 03:37:00,
2013-01-26 22:42:00,23.2,19.4,30.43,NW,312,0.0,3.0,85,0.00,,---,0.01,VWS V14.01,2013-01-27 03:42:00,
2013-01-26 22:47:00,23.4,19.6,30.43,West,271,0.0,0.0,85,0.00,,---,0.01,VWS V14.01,2013-01-27 03:47:00,
2013-01-26 22:52:00,23.4,19.3,30.43,West,273,0.0,0.0,84,0.00,,---,0.01,VWS V14.01,2013-01-27 03:52:00,
2013-01-26 22:57:00,23.3,19.2,30.43,NW,318,0.0,0.0,84,0.00,,---,0.01,VWS V14.01,2013-01-27 03:57:00,
2013-01-26 23:02:00,23.1,19.0,30.43,SSW,195,0.0,0.0,84,0.00,,---,0.01,VWS V14.01,2013-01-27 04:02:00,
2013-01-26 23:07:00,23.1,19.0,30.44,SSW,195,0.0,0.0,84,0.00,,---,0.01,VWS V14.01,2013-01-27 04:07:00,
2013-01-26 23:12:00,23.1,18.7,30.44,SW,226,0.0,0.0,83,0.00,,---,0.01,VWS V14.01,2013-01-27 04:12:00,
2013-01-26 23:17:00,23.4,18.7,30.44,SW,232,0.0,0.0,82,0.00,,---,0.01,VWS V14.01,2013-01-27 04:17:00,
2013-01-26 23:22:00,23.5,18.5,30.44,WSW,245,0.0,0.0,81,0.00,,---,0.01,VWS V14.01,2013-01-27 04:22:00,
2013-01-26 23:27:00,23.6,18.4,30.43,SW,220,0.0,1.0,80,0.00,,---,0.01,VWS V14.01,2013-01-27 04:27:00,
2013-01-26 23:32:00,23.5,18.2,30.44,ENE,67,0.0,0.0,80,0.00,,---,0.01,VWS V14.01,2013-01-27 04:32:00,
2013-01-26 23:37:00,23.4,18.1,30.44,NNW,344,0.0,1.0,80,0.00,,---,0.01,VWS V14.01,2013-01-27 04:37:00,
2013-01-26 23:42:00,23.3,18.3,30.45,NNW,346,0.0,0.0,81,0.00,,---,0.01,VWS V14.01,2013-01-27 04:42:00,
2013-01-26 23:48:00,23.1,17.9,30.46,West,264,0.0,0.0,80,0.00,,---,0.01,VWS V14.01,2013-01-27 04:48:00,
2013-01-26 23:53:00,23.0,17.8,30.46,West,265,0.0,1.0,80,0.00,,---,0.01,VWS V14.01,2013-01-27 04:53:00,
2013-01-26 23:58:00,22.7,17.5,30.46,West,266,0.0,0.0,80,0.00,,---,0.01,VWS V14.01,2013-01-27 04:58:00,